Wind_Speed
44 40 36 34 30 28 29 32 34 35 36 37 38 40 40 40 42 44 45 44 43 39 37 35 36 38 40 41 41 41 39 38 36 35 35 35 36 36 36 35 36 37
41 40 37 35 32 29 27 27 28 27 28 29 31 35 39 43 45 45 45 44 45 44 43 42 41 40 40 40 40 40 39 39 38 37 37 38 37 35 33 33 33 35
36 39 38 36 35 33 30 29 28 27 26 26 26 29 32 36 40 42 42 40 40 41 43 44 44 42 38 36 36 36 37 38 38 37 37 37 35 32 31 31 31 34
32 38 41 39 37 35 32 29 26 26 25 22 23 26 30 33 36 38 39 39 38 38 40 42 42 40 36 32 32 32 33 33 34 34 34 34 32 31 31 31 32 35
32 37 41 40 37 35 31 28 26 25 24 23 23 26 30 35 39 40 39 39 39 38 38 40 40 38 35 31 31 30 30 30 30 31 31 32 32 32 32 33 35 39
36 37 40 38 34 32 33 32 29 27 25 26 29 30 32 34 38 40 39 37 38 39 39 40 39 38 35 31 30 30 30 30 31 31 32 33 33 34 34 35 39 41
38 38 38 36 31 31 35 34 31 28 26 29 33 34 35 36 35 38 39 35 35 37 38 40 40 38 36 33 32 32 32 33 33 34 35 35 35 35 36 39 42 41
39 37 37 36 32 31 34 33 31 32 30 31 35 36 36 36 35 39 39 36 35 36 37 38 39 37 36 35 35 35 35 35 36 37 37 36 36 37 41 42 41 38
38 35 36 38 36 34 33 32 34 36 35 34 37 39 38 34 34 39 41 39 38 38 37 39 39 39 38 39 40 40 40 39 39 38 37 37 39 42 43 41 38 37
40 33 36 41 40 37 35 33 35 36 36 37 39 42 43 38 36 41 44 43 43 42 41 40 41 42 43 44 44 44 44 41 38 38 40 42 43 43 40 38 36 37
43 37 38 42 43 41 36 33 34 34 36 40 41 43 46 45 42 43 44 45 47 47 47 45 44 45 46 47 47 46 45 42 40 41 43 43 41 39 37 36 36 37
47 42 41 44 46 43 38 34 34 34 36 39 42 44 46 46 46 45 44 45 47 48 49 50 48 45 45 47 48 47 45 43 41 42 41 39 37 36 36 35 36 37
46 45 44 47 48 43 38 36 35 35 36 37 39 42 46 48 47 44 44 46 47 47 48 50 47 42 40 41 43 44 43 40 39 39 38 37 36 35 35 36 37 39
44 45 46 49 49 43 35 33 34 37 39 38 38 41 46 51 51 46 44 47 47 46 47 48 48 44 41 40 40 39 39 38 38 38 37 36 36 36 37 39 40 41
44 45 47 49 48 42 36 32 33 37 40 40 41 41 44 51 54 50 47 48 48 49 51 51 52 51 48 44 41 39 38 38 38 39 38 38 39 40 40 41 42 42
47 48 49 50 49 46 41 37 35 37 39 39 41 43 43 47 54 55 54 53 53 53 56 56 55 55 51 46 44 43 42 41 41 41 42 42 43 43 43 43 44 43
51 51 51 52 51 48 45 41 39 41 41 40 42 45 45 45 51 56 59 59 58 55 55 54 53 51 49 47 47 46 45 44 44 44 44 44 45 45 45 44 43 42
54 54 53 54 52 48 46 44 42 40 39 40 44 47 48 47 49 53 56 57 57 54 52 51 50 50 49 48 47 46 46 48 49 48 46 46 47 46 44 43 42 42
56 55 55 55 52 49 48 46 42 38 37 41 45 47 49 50 50 51 53 54 53 52 51 52 52 52 51 50 47 47 49 52 54 53 52 51 50 48 46 45 45 46
55 54 54 53 51 49 50 48 45 42 39 42 46 48 50 51 51 51 52 52 51 52 53 54 54 54 55 54 53 52 52 52 53 53 53 52 52 51 50 49 49 49
51 53 52 52 50 50 50 49 48 48 47 46 47 49 52 54 52 52 52 51 52 53 54 55 56 56 55 54 54 54 51 50 51 52 53 54 54 53 52 51 51 50
50 51 52 51 51 51 51 49 49 49 49 49 49 50 53 55 54 54 54 54 54 55 56 56 57 57 55 54 53 52 52 52 54 55 56 55 55 54 53 51 51 51
50 51 51 51 51 51 52 52 52 50 47 47 50 52 53 56 56 56 56 55 55 56 57 58 58 59 58 57 57 56 55 57 58 57 57 57 56 56 56 54 54 53
50 51 52 52 53 53 52 51 53 53 50 48 51 53 54 57 59 58 57 56 56 58 59 60 61 61 60 60 61 61 61 62 62 60 59 60 60 61 60 59 58 56
52 52 53 55 57 58 56 54 53 54 54 54 55 55 56 59 60 60 59 58 57 58 59 60 62 63 63 63 64 64 65 66 66 64 62 63 64 64 64 62 61 60
56 54 55 57 60 62 62 61 58 57 57 58 59 58 59 60 59 59 60 59 58 59 60 61 62 64 64 64 65 66 66 67 67 66 66 67 67 67 66 65 64 64
Wind_Direction
230 234 237 236 237 241 244 245 246 249 253 255 253 249 245 243 243 245 248 251 255 259 263 263 261 261 261 261 263 266 268 268 265 262 262 267 273 278 282 286 287 285
233 235 240 239 239 241 242 243 246 251 257 261 260 255 251 248 249 252 254 257 259 261 263 262 261 262 263 264 265 266 266 265 263 262 262 267 273 279 284 287 287 285
238 238 241 243 245 246 245 245 247 252 259 266 269 268 266 261 257 257 259 260 261 261 261 259 260 262 265 267 267 266 264 263 263 262 263 267 275 281 285 289 289 289
241 242 242 244 246 246 246 247 247 249 253 258 264 268 271 271 267 263 262 261 260 258 257 256 258 261 264 266 267 265 263 262 262 261 263 270 277 282 286 291 292 293
231 239 242 243 243 241 243 245 243 243 239 233 239 249 256 265 269 267 263 262 260 258 256 255 257 260 261 263 264 265 265 264 263 263 268 275 279 283 287 292 295 296
222 230 235 238 239 240 242 242 242 244 233 217 219 229 238 250 261 263 261 260 258 257 257 256 257 259 261 262 263 265 267 267 267 269 275 280 282 284 287 292 296 296
222 227 230 229 231 236 238 237 238 242 233 216 214 221 227 234 245 254 257 258 257 258 259 258 259 261 263 263 264 266 267 267 269 274 280 282 282 282 287 293 296 294
224 228 227 221 220 230 235 232 230 233 232 223 219 221 224 229 238 247 252 257 261 263 264 264 262 262 263 263 263 264 263 265 272 278 280 280 279 282 288 292 292 289
221 226 225 217 216 227 233 229 226 227 228 225 222 224 224 226 236 245 250 257 263 265 268 269 265 259 256 257 258 258 260 267 274 277 275 275 278 283 288 288 286 285
218 222 223 217 217 225 229 227 226 225 225 226 226 226 227 227 235 245 252 259 263 265 267 268 268 262 256 254 256 258 262 268 271 270 270 274 279 283 284 283 282 282
219 218 219 218 220 225 226 227 228 224 223 227 228 229 231 232 237 244 250 256 261 262 262 262 266 266 260 257 258 261 263 265 265 267 271 276 279 280 279 279 279 279
221 218 216 217 221 226 228 230 230 227 227 229 229 232 235 236 238 242 247 252 256 257 257 258 263 267 263 259 259 260 262 264 266 270 273 275 276 275 275 276 276 277
224 221 217 217 220 224 229 234 234 233 234 236 235 236 237 238 239 241 244 249 253 254 254 255 260 265 265 263 263 262 263 266 269 271 272 272 273 273 273 274 276 277
225 223 218 218 221 222 225 232 237 237 240 243 242 239 238 239 239 239 242 247 252 254 253 254 258 262 265 268 270 268 267 269 270 270 271 272 272 272 273 275 276 277
224 222 218 217 218 218 217 223 231 235 239 242 242 241 240 239 240 240 241 244 248 251 252 255 260 263 267 271 273 271 271 271 272 273 273 272 272 273 275 276 276 277
224 221 217 215 216 216 216 220 223 227 233 236 240 242 241 239 239 240 242 245 248 252 256 259 261 264 268 272 273 272 271 271 275 277 276 275 275 276 277 277 276 277
226 223 219 216 218 220 220 221 224 227 230 235 239 242 242 240 239 241 244 249 251 255 259 261 261 262 266 270 271 270 269 271 276 277 275 275 277 277 277 277 276 277
226 225 223 220 221 224 224 223 225 229 234 238 241 243 243 242 241 242 247 252 256 258 258 256 257 260 263 265 266 267 268 272 277 277 274 275 278 277 276 275 276 278
226 226 226 224 224 227 228 226 226 229 235 240 242 243 245 245 245 247 250 255 258 260 258 255 255 257 258 260 262 266 269 272 274 273 273 275 277 276 274 274 276 278
226 226 225 224 225 228 229 229 227 227 231 238 241 244 247 248 248 250 252 255 258 259 257 255 255 255 256 258 262 267 269 270 269 269 271 274 275 274 274 275 276 277
225 224 223 221 222 225 228 230 231 230 231 235 241 245 248 250 251 252 253 254 255 256 256 255 256 256 258 261 263 265 265 266 267 269 271 273 273 273 274 275 276 277
226 223 222 220 222 226 228 230 233 234 233 235 239 244 248 251 252 253 254 254 255 255 255 256 256 257 258 259 261 262 263 264 266 269 271 272 271 271 272 273 274 276
229 225 222 221 223 227 230 232 234 235 234 236 241 244 247 251 252 253 253 254 254 255 255 256 257 257 256 256 259 262 263 264 266 268 269 269 269 270 271 272 273 274
229 227 225 224 224 226 228 231 233 234 232 234 239 242 245 248 249 250 251 252 252 253 253 255 256 256 256 255 257 261 263 264 265 266 266 267 269 270 272 272 272 273
230 230 228 227 226 226 227 229 232 234 234 234 237 240 242 245 247 248 250 251 253 253 252 253 253 255 256 256 258 261 263 264 265 265 265 266 268 270 271 271 271 272
233 231 230 230 230 230 231 232 235 237 236 236 237 239 242 245 248 248 249 251 253 254 253 253 254 255 257 259 260 261 262 263 263 263 263 265 267 268 269 270 271 271
Height
10646 10649 10652 10654 10657 10659 10662 10664 10667 10670 10672 10674 10676 10678 10680 10681 10681 10682 10682 10684 10685 10686 10687 10688 10688 10689 10689 10689 10690 10690 10690 10690 10690 10690 10691 10691 10691 10691 10692 10691 10690 10690
10643 10647 10650 10653 10654 10656 10659 10660 10662 10665 10668 10670 10671 10672 10673 10674 10675 10676 10677 10678 10680 10681 10682 10683 10683 10684 10684 10684 10685 10685 10685 10685 10685 10686 10686 10687 10687 10688 10688 10687 10687 10686
10644 10646 10649 10651 10652 10654 10656 10658 10659 10661 10664 10666 10667 10668 10668 10669 10670 10670 10671 10672 10674 10675 10676 10677 10678 10679 10679 10679 10680 10680 10680 10680 10681 10682 10683 10683 10684 10684 10683 10683 10683 10682
10643 10644 10646 10647 10649 10651 10653 10655 10657 10657 10660 10663 10665 10666 10665 10662 10662 10664 10665 10666 10668 10669 10671 10671 10672 10673 10674 10675 10675 10675 10675 10676 10677 10678 10679 10680 10680 10680 10679 10679 10679 10679
10636 10637 10639 10642 10645 10648 10650 10652 10652 10652 10654 10657 10659 10662 10662 10659 10656 10656 10658 10659 10661 10663 10664 10665 10666 10667 10669 10670 10670 10670 10671 10672 10672 10674 10675 10676 10676 10675 10675 10675 10675 10674
10627 10628 10632 10638 10644 10645 10645 10645 10646 10647 10649 10650 10650 10652 10656 10657 10653 10650 10652 10654 10655 10657 10658 10660 10661 10662 10663 10664 10665 10665 10666 10667 10668 10669 10671 10671 10671 10671 10671 10670 10670 10670
10621 10623 10628 10636 10641 10640 10637 10639 10642 10643 10644 10644 10644 10644 10646 10650 10649 10646 10646 10648 10650 10652 10653 10655 10656 10657 10658 10659 10660 10660 10661 10663 10664 10665 10666 10666 10666 10666 10666 10666 10666 10665
10618 10620 10625 10631 10634 10630 10629 10634 10637 10637 10638 10640 10641 10640 10640 10643 10643 10641 10641 10644 10645 10646 10648 10649 10651 10652 10653 10654 10655 10656 10657 10658 10659 10660 10661 10661 10661 10661 10661 10661 10661 10660
10614 10617 10621 10625 10624 10622 10625 10628 10628 10629 10633 10635 10637 10637 10636 10638 10638 10636 10637 10639 10640 10641 10643 10644 10646 10647 10647 10649 10650 10651 10652 10653 10654 10655 10656 10656 10656 10656 10656 10656 10656 10655
10611 10615 10618 10619 10618 10616 10619 10622 10622 10625 10629 10630 10632 10633 10633 10633 10632 10631 10632 10635 10636 10637 10639 10640 10641 10641 10642 10643 10644 10646 10647 10648 10649 10650 10650 10651 10651 10651 10651 10651 10651 10650
10609 10612 10614 10615 10613 10612 10616 10619 10620 10623 10625 10626 10628 10629 10629 10629 10627 10626 10629 10631 10632 10634 10635 10635 10636 10636 10637 10638 10639 10640 10641 10643 10644 10645 10645 10645 10646 10646 10646 10646 10646 10645
10603 10607 10610 10611 10610 10611 10616 10618 10619 10620 10622 10622 10623 10623 10624 10623 10621 10621 10625 10627 10628 10629 10629 10630 10632 10633 10633 10634 10634 10635 10636 10638 10639 10639 10639 10640 10640 10641 10641 10641 10641 10641
10598 10602 10605 10606 10606 10609 10614 10615 10616 10618 10618 10618 10619 10619 10620 10618 10615 10616 10620 10622 10622 10623 10624 10625 10627 10629 10629 10630 10630 10631 10632 10633 10634 10634 10634 10635 10635 10636 10636 10636 10637 10637
10593 10596 10600 10600 10601 10605 10609 10611 10612 10611 10611 10612 10613 10614 10614 10612 10610 10611 10614 10615 10616 10617 10618 10620 10621 10624 10625 10626 10626 10627 10628 10628 10629 10628 10629 10630 10630 10631 10631 10632 10632 10632
10588 10591 10593 10595 10596 10598 10601 10603 10604 10603 10604 10605 10606 10607 10608 10607 10606 10607 10608 10608 10610 10611 10613 10615 10617 10618 10621 10622 10622 10623 10623 10624 10624 10624 10624 10625 10625 10625 10626 10626 10626 10626
10583 10585 10588 10589 10589 10590 10592 10594 10595 10596 10598 10599 10599 10600 10602 10603 10602 10602 10601 10601 10604 10607 10609 10611 10613 10614 10616 10617 10617 10618 10619 10619 10619 10619 10619 10619 10619 10620 10621 10621 10620 10621
10578 10580 10583 10584 10584 10585 10587 10588 10589 10590 10592 10593 10593 10593 10595 10598 10598 10597 10596 10596 10599 10604 10606 10607 10608 10609 10611 10612 10612 10613 10613 10613 10613 10614 10614 10614 10614 10614 10615 10615 10615 10616
10573 10575 10578 10580 10580 10580 10582 10583 10585 10586 10588 10588 10587 10588 10590 10592 10592 10593 10592 10592 10594 10598 10600 10601 10603 10604 10606 10606 10607 10608 10607 10607 10607 10608 10608 10608 10608 10609 10609 10610 10610 10610
10568 10570 10573 10575 10575 10576 10577 10579 10581 10583 10584 10583 10582 10583 10584 10585 10587 10588 10588 10588 10589 10591 10593 10595 10597 10599 10599 10600 10601 10602 10602 10601 10600 10601 10602 10602 10602 10603 10604 10604 10605 10604
10562 10565 10568 10570 10571 10571 10573 10575 10578 10579 10580 10578 10577 10578 10578 10579 10582 10583 10583 10584 10584 10585 10587 10589 10591 10592 10593 10593 10594 10595 10596 10595 10594 10595 10595 10595 10596 10597 10597 10598 10598 10598
10557 10559 10562 10564 10566 10567 10569 10571 10572 10573 10573 10573 10573 10573 10573 10573 10576 10578 10578 10579 10580 10580 10581 10583 10584 10586 10586 10586 10587 10588 10589 10589 10588 10588 10589 10589 10589 10590 10590 10591 10591 10591
10552 10554 10557 10559 10561 10563 10564 10566 10567 10567 10568 10568 10568 10568 10567 10567 10570 10571 10572 10574 10574 10574 10575 10576 10577 10579 10580 10580 10580 10581 10582 10582 10581 10581 10582 10583 10583 10582 10583 10584 10584 10584
10547 10549 10552 10555 10557 10558 10559 10561 10562 10562 10563 10563 10563 10563 10563 10563 10563 10564 10565 10567 10568 10568 10569 10570 10570 10571 10573 10574 10573 10573 10574 10575 10574 10574 10575 10576 10576 10575 10576 10577 10578 10577
10541 10544 10547 10549 10551 10552 10553 10555 10556 10556 10557 10557 10556 10557 10559 10557 10557 10558 10559 10560 10560 10561 10562 10563 10563 10564 10566 10567 10566 10565 10566 10567 10567 10568 10568 10568 10568 10568 10568 10569 10571 10571
10535 10538 10541 10543 10544 10545 10546 10548 10550 10551 10551 10550 10549 10551 10552 10551 10551 10552 10553 10553 10553 10553 10554 10555 10556 10556 10558 10559 10559 10558 10558 10558 10559 10561 10561 10560 10560 10560 10560 10561 10563 10563
10528 10531 10535 10536 10537 10538 10540 10542 10544 10544 10544 10544 10545 10545 10546 10545 10545 10546 10546 10547 10546 10545 10545 10547 10547 10548 10549 10550 10550 10549 10550 10550 10550 10552 10553 10553 10552 10553 10553 10553 10554 10554